Flag for Bosnia-Herzegovina Weather past 2 weeks in Sarajevo, Bosnia-Herzegovina

Now
50 °F

Light rain. Partly sunny.


Feels Like: 45 °F
Forecast: 35 / 52 °F
Wind: 13 mph from Northwest

Location: Sarajevo / Butmir

Current Time: Apr 18, 2015 at 11:54:48 AM

Latest Report: Apr 18, 2015 at 11:30 AM


Visibility: 5 mi

Pressure: 29.98 "Hg

Humidity: 94%

Dew point: 48 °F

Location of SarajevoLocation

Historic Weather in Sarajevo — Graph

°F

Sarajevo temperature yesterday

Maximum temperature yesterday: 68 °F (at 4:00 PM)
Minimum temperature yesterday: 41 °F (at 6:00 AM)
Average temperature yesterday: 57 °F

Past Weeks' High & Low Weather Summary

 TemperatureHumidityPressure
High72 °F (Apr 16, 12:30 PM)100% (Apr 5, 5:00 AM)30.45 "Hg (Apr 5, 5:00 AM)
Low25 °F (Apr 4, 4:00 AM)18% (Apr 10, 5:00 PM)29.80 "Hg (Apr 5, 5:00 AM)
Average47 °F67%30.18 "Hg
* Reported Apr 3 10:00 AM — Apr 18 10:30 AM, Sarajevo, Weather by CustomWeather, © 2015

Note: Actual official high and low records may vary slightly from our data, if they occured in-between our weather recording intervals... More about our weather records

Advertising

Sarajevo weather history for previous 24 hours

 ConditionsComfort  
Time TempWeatherWind HumidityBarometerVisibility
10:30 AM
Sat, Apr 18
61 °FScattered clouds.2 mph55%29.92 "HgN/A
10:00 AM59 °FScattered clouds.1 mph59%29.92 "HgN/A
9:30 AM57 °FLight rain. Partly sunny.1 mph67%29.92 "HgN/A
9:00 AM55 °FScattered clouds.1 mph72%29.92 "HgN/A
8:30 AM54 °FPartly sunny.1 mph77%29.92 "HgN/A
8:00 AM52 °FLight rain. Partly sunny.1 mph82%29.92 "HgN/A
7:30 AM52 °FLight rain. Partly sunny.2 mph77%29.92 "HgN/A
7:00 AM50 °FPartly sunny.2 mph82%29.92 "HgN/A
6:30 AM52 °FPassing clouds.1 mph77%29.92 "HgN/A
6:00 AM50 °FPassing clouds.1 mph82%29.92 "HgN/A
5:30 AM50 °FPassing clouds.1 mph82%29.92 "HgN/A
5:00 AM50 °FPassing clouds.2 mph82%29.95 "HgN/A
4:00 AM54 °FPassing clouds.No wind67%29.95 "HgN/A
3:00 AM50 °FPassing clouds.3 mph82%29.95 "HgN/A
2:00 AM50 °FClear.No wind71%29.98 "Hg10 mi
1:00 AM54 °FPassing clouds.5 mph67%29.98 "HgN/A
12:00 AM57 °FPassing clouds.6 mph59%29.98 "HgN/A
11:00 PM
Fri, Apr 17
59 °FPassing clouds.2 mph55%29.98 "HgN/A
10:30 PM57 °FPassing clouds.3 mph59%29.98 "HgN/A
10:00 PM59 °FPassing clouds.1 mph51%29.98 "HgN/A
9:30 PM59 °FPassing clouds.2 mph51%29.98 "HgN/A
9:00 PM59 °FPassing clouds.3 mph51%29.98 "HgN/A
8:30 PM59 °FPassing clouds.6 mph51%29.98 "HgN/A
8:00 PM61 °FScattered clouds.3 mph45%29.98 "HgN/A
7:30 PM61 °FScattered clouds.7 mph45%29.95 "HgN/A
7:00 PM63 °FPassing clouds.7 mph42%29.98 "HgN/A
6:30 PM64 °FPassing clouds.9 mph40%29.98 "HgN/A
6:00 PM64 °FPassing clouds.13 mph40%29.98 "HgN/A
5:30 PM64 °FPassing clouds.14 mph43%29.98 "HgN/A
5:00 PM68 °FPassing clouds.10 mph38%29.98 "HgN/A
4:30 PM66 °FPassing clouds.15 mph37%29.98 "HgN/A
4:00 PM68 °FPassing clouds.6 mph38%29.95 "HgN/A
3:30 PM66 °FPassing clouds.8 mph46%29.98 "HgN/A
3:00 PM66 °FPassing clouds.6 mph40%29.98 "HgN/A
2:30 PM64 °FSunny.3 mph46%30.01 "Hg10 mi
2:00 PM63 °FSunny.2 mph49%30.04 "Hg10 mi
1:30 PM63 °FPassing clouds.1 mph45%30.04 "HgN/A
1:00 PM63 °FScattered clouds.5 mph49%30.07 "HgN/A
12:30 PM64 °FSunny.2 mph43%30.07 "Hg10 mi
12:00 PM63 °FSunny.1 mph45%30.07 "Hg10 mi
11:30 AM61 °FSunny.1 mph45%30.07 "Hg10 mi
11:00 AM59 °FSunny.1 mph51%30.07 "Hg10 mi
Weather by CustomWeather, © 2015

See weather overviewHow to use our weather pages